| time (UTC) | temp C | wind direction | speed KPH | gust KPH | rain 1hr cm | rain 24hr cm | rain mn cm | humidity % | barometer mb |
| 20260506230004 | 15 | 310 | 8.0 | 0.0 | 0.00 | 0.00 | 0.00 | 76 | 1014.0 |
| 20260506224504 | 15 | 310 | 8.0 | 0.0 | 0.00 | 0.00 | 0.00 | 76 | 1014.0 |
| 20260506223005 | 16 | 20 | 1.6 | 0.0 | 0.00 | 0.00 | 0.00 | 72 | 1013.0 |
| 20260506220005 | 17 | 0 | 1.6 | 0.0 | 0.00 | 0.00 | 0.00 | 72 | 1013.0 |
| 20260506214504 | 17 | 0 | 1.6 | 0.0 | 0.00 | 0.00 | 0.00 | 72 | 1013.0 |
| 20260506203004 | 17 | 0 | 3.2 | 0.0 | 0.00 | 0.00 | 0.00 | 63 | 1012.0 |
| 20260506201504 | 17 | 0 | 3.2 | 0.0 | 0.00 | 0.00 | 0.00 | 63 | 1012.0 |
| 20260506194504 | 17 | 0 | 3.2 | 0.0 | 0.00 | 0.00 | 0.00 | 63 | 1012.0 |
| 20260506193004 | 17 | 160 | 8.0 | 0.0 | 0.00 | 0.00 | 0.00 | 63 | 1011.0 |
| 20260506191503 | 17 | 160 | 8.0 | 0.0 | 0.00 | 0.00 | 0.00 | 63 | 1011.0 |
| 20260506190004 | 17 | 180 | 11.3 | 0.0 | 0.00 | 0.00 | 0.00 | 63 | 1011.0 |
| 20260506184504 | 17 | 180 | 11.3 | 0.0 | 0.00 | 0.00 | 0.00 | 63 | 1011.0 |
| 20260506181504 | 18 | 180 | 11.3 | 0.0 | 0.00 | 0.00 | 0.00 | 59 | 1011.0 |
| 20260506180005 | 18 | 190 | 11.3 | 0.0 | 0.00 | 0.00 | 0.00 | 55 | 1011.0 |
| 20260506174504 | 18 | 190 | 11.3 | 0.0 | 0.00 | 0.00 | 0.00 | 55 | 1011.0 |
| 20260506171504 | 18 | 180 | 11.3 | 0.0 | 0.00 | 0.00 | 0.00 | 55 | 1011.0 |
| 20260506164504 | 18 | 190 | 1.6 | 0.0 | 0.00 | 0.00 | 0.00 | 52 | 1011.0 |
| 20260506163005 | 18 | 190 | 19.3 | 0.0 | 0.00 | 0.00 | 0.00 | 55 | 1011.0 |
| 20260506160005 | 18 | 190 | 20.9 | 0.0 | 0.00 | 0.00 | 0.00 | 48 | 1011.0 |
| 20260506153004 | 20 | 190 | 20.9 | 0.0 | 0.00 | 0.00 | 0.00 | 49 | 1011.0 |
| 20260506151503 | 20 | 190 | 20.9 | 0.0 | 0.00 | 0.00 | 0.00 | 49 | 1011.0 |
| 20260506150004 | 20 | 190 | 1.6 | 0.0 | 0.00 | 0.00 | 0.00 | 49 | 1011.0 |
| 20260506144504 | 20 | 190 | 1.6 | 0.0 | 0.00 | 0.00 | 0.00 | 49 | 1011.0 |
| 20260506141504 | 20 | 210 | 20.9 | 0.0 | 0.00 | 0.00 | 0.00 | 45 | 1012.0 |
| 20260506133004 | 18 | 190 | 1.6 | 0.0 | 0.00 | 0.00 | 0.00 | 48 | 1012.0 |
| 20260506131504 | 18 | 190 | 1.6 | 0.0 | 0.00 | 0.00 | 0.00 | 48 | 1012.0 |
| 20260506124504 | 18 | 180 | 1.6 | 0.0 | 0.00 | 0.00 | 0.00 | 48 | 1012.0 |
| 20260506121504 | 18 | 180 | 14.5 | 0.0 | 0.00 | 0.00 | 0.00 | 45 | 1012.0 |
| 20260506114504 | 18 | 180 | 14.5 | 0.0 | 0.00 | 0.00 | 0.00 | 42 | 1012.0 |
| 20260506113004 | 17 | 160 | 11.3 | 0.0 | 0.00 | 0.00 | 0.00 | 45 | 1012.0 |
| 20260506111503 | 17 | 160 | 11.3 | 0.0 | 0.00 | 0.00 | 0.00 | 45 | 1012.0 |
| 20260506110004 | 17 | 350 | 4.8 | 0.0 | 0.00 | 0.00 | 0.00 | 45 | 1013.0 |
| 20260506104504 | 17 | 350 | 4.8 | 0.0 | 0.00 | 0.00 | 0.00 | 45 | 1013.0 |
| 20260506103005 | 18 | 210 | 3.2 | 0.0 | 0.00 | 0.00 | 0.00 | 45 | 1013.0 |
| 20260506101504 | 18 | 210 | 3.2 | 0.0 | 0.00 | 0.00 | 0.00 | 45 | 1013.0 |
| 20260506100005 | 17 | 350 | 11.3 | 0.0 | 0.00 | 0.00 | 0.00 | 48 | 1013.0 |
| 20260506093004 | 17 | 340 | 14.5 | 0.0 | 0.00 | 0.00 | 0.00 | 55 | 1013.0 |
| 20260506091505 | 17 | 340 | 14.5 | 0.0 | 0.00 | 0.00 | 0.00 | 55 | 1013.0 |
| 20260506090005 | 16 | 350 | 19.3 | 0.0 | 0.00 | 0.00 | 0.00 | 55 | 1013.0 |
| 20260506083005 | 16 | 340 | 19.3 | 0.0 | 0.00 | 0.00 | 0.00 | 55 | 1013.0 |
| 20260506081504 | 16 | 340 | 19.3 | 0.0 | 0.00 | 0.00 | 0.00 | 55 | 1013.0 |
| 20260506061504 | 12 | 330 | 19.3 | 0.0 | 0.00 | 0.00 | 0.00 | 81 | 1012.0 |
| 20260506043004 | 12 | 330 | 12.9 | 0.0 | 0.00 | 0.00 | 0.00 | 87 | 1011.0 |
| 20260506041505 | 12 | 330 | 12.9 | 0.0 | 0.00 | 0.00 | 0.00 | 87 | 1011.0 |
| 20260506040004 | 12 | 360 | 9.7 | 0.0 | 0.00 | 0.00 | 0.00 | 87 | 1011.0 |
| 20260506034503 | 12 | 360 | 9.7 | 0.0 | 0.00 | 0.00 | 0.00 | 87 | 1011.0 |
| 20260506033005 | 12 | 350 | 12.9 | 0.0 | 0.00 | 0.00 | 0.00 | 82 | 1011.0 |
| 20260506031504 | 12 | 350 | 12.9 | 0.0 | 0.00 | 0.00 | 0.00 | 82 | 1011.0 |
| 20260506030004 | 12 | 340 | 12.9 | 0.0 | 0.00 | 0.00 | 0.00 | 87 | 1011.0 |
| 20260506023004 | 12 | 330 | 11.3 | 0.0 | 0.00 | 0.00 | 0.00 | 87 | 1011.0 |
| 20260506020005 | 13 | 320 | 9.7 | 0.0 | 0.00 | 0.00 | 0.00 | 82 | 1011.0 |
| 20260506014504 | 13 | 320 | 9.7 | 0.0 | 0.00 | 0.00 | 0.00 | 82 | 1011.0 |
| 20260506013004 | 13 | 320 | 8.0 | 0.0 | 0.00 | 0.00 | 0.00 | 82 | 1011.0 |
| 20260506010003 | 13 | 330 | 11.3 | 0.0 | 0.00 | 0.00 | 0.00 | 82 | 1011.0 |
| 20260506004504 | 13 | 330 | 11.3 | 0.0 | 0.00 | 0.00 | 0.00 | 82 | 1011.0 |
| 20260506003004 | 15 | 10 | 4.8 | 0.0 | 0.00 | 0.00 | 0.00 | 76 | 1011.0 |
| 20260506001504 | 15 | 10 | 4.8 | 0.0 | 0.00 | 0.00 | 0.00 | 76 | 1011.0 |
| 20260506000004 | 15 | 330 | 9.7 | 0.0 | 0.00 | 0.00 | 0.00 | 76 | 1011.0 |
| 20260505234504 | 15 | 330 | 9.7 | 0.0 | 0.00 | 0.00 | 0.00 | 76 | 1011.0 |
| 20260505233004 | 16 | 330 | 9.7 | 0.0 | 0.00 | 0.00 | 0.00 | 72 | 1011.0 |